Time,TemperatureF,DewpointF,PressureIn,WindDirection,WindDirectionDegrees,WindSpeedMPH,WindSpeedGustMPH,Humidity,HourlyPrecipIn,Conditions,Clouds,dailyrainin,SoftwareType,DateUTC
2013-06-06 00:02:00,56.5,50.0,30.10,ESE,107,0.0,-999.0,79,-99.99,,,0.00,weatherlink.com 1.10,2013-06-05 23:02:00,
2013-06-06 00:17:00,56.3,50.0,30.10,ENE,65,0.0,-999.0,80,-99.99,,,0.00,weatherlink.com 1.10,2013-06-05 23:17:00,
2013-06-06 00:32:00,56.0,50.0,30.10,ESE,113,0.0,-999.0,81,-99.99,,,0.00,weatherlink.com 1.10,2013-06-05 23:32:00,
2013-06-06 00:47:00,55.6,50.0,30.11,ESE,117,0.0,-999.0,80,-99.99,,,0.00,weatherlink.com 1.10,2013-06-05 23:47:00,
2013-06-06 01:02:00,55.4,50.0,30.10,ESE,104,0.0,-999.0,81,-99.99,,,0.00,weatherlink.com 1.10,2013-06-06 00:02:00,
2013-06-06 01:17:00,55.1,50.0,30.10,ESE,105,0.0,-999.0,82,-99.99,,,0.00,weatherlink.com 1.10,2013-06-06 00:17:00,
2013-06-06 01:32:00,54.7,50.0,30.10,ESE,109,0.0,-999.0,83,-99.99,,,0.00,weatherlink.com 1.10,2013-06-06 00:32:00,
2013-06-06 01:47:00,54.4,50.0,30.10,ESE,120,0.0,-999.0,84,-99.99,,,0.00,weatherlink.com 1.10,2013-06-06 00:47:00,
2013-06-06 02:02:00,54.2,50.0,30.10,ESE,120,0.0,-999.0,85,-99.99,,,0.00,weatherlink.com 1.10,2013-06-06 01:02:00,
2013-06-06 02:17:00,54.1,50.0,30.10,ESE,120,0.0,-999.0,85,-99.99,,,0.00,weatherlink.com 1.10,2013-06-06 01:17:00,
2013-06-06 02:32:00,53.9,50.0,30.10,ESE,120,0.0,-999.0,86,-99.99,,,0.00,weatherlink.com 1.10,2013-06-06 01:32:00,
2013-06-06 02:47:00,53.7,50.0,30.09,ESE,120,0.0,-999.0,86,-99.99,,,0.00,weatherlink.com 1.10,2013-06-06 01:47:00,
2013-06-06 03:02:00,53.7,50.0,30.09,ESE,115,0.0,-999.0,86,-99.99,,,0.00,weatherlink.com 1.10,2013-06-06 02:02:00,
2013-06-06 03:17:00,53.5,50.0,30.09,ESE,115,0.0,-999.0,87,-99.99,,,0.00,weatherlink.com 1.10,2013-06-06 02:17:00,
2013-06-06 03:32:00,53.4,50.0,30.09,ESE,115,0.0,-999.0,87,-99.99,,,0.00,weatherlink.com 1.10,2013-06-06 02:32:00,
2013-06-06 03:47:00,53.3,50.0,30.09,ESE,115,0.0,-999.0,87,-99.99,,,0.00,weatherlink.com 1.10,2013-06-06 02:47:00,
2013-06-06 04:02:00,53.1,49.0,30.10,ESE,115,0.0,-999.0,87,-99.99,,,0.00,weatherlink.com 1.10,2013-06-06 03:02:00,
2013-06-06 04:17:00,53.0,50.0,30.09,ESE,115,0.0,-999.0,88,-99.99,,,0.00,weatherlink.com 1.10,2013-06-06 03:17:00,
2013-06-06 04:32:00,53.0,50.0,30.09,ESE,115,0.0,-999.0,88,-99.99,,,0.00,weatherlink.com 1.10,2013-06-06 03:32:00,
2013-06-06 04:47:00,53.0,49.0,30.10,ESE,115,0.0,-999.0,87,-99.99,,,0.00,weatherlink.com 1.10,2013-06-06 03:47:00,
2013-06-06 05:02:00,53.2,50.0,30.10,ESE,115,0.0,-999.0,87,-99.99,,,0.00,weatherlink.com 1.10,2013-06-06 04:02:00,
2013-06-06 05:17:00,53.3,50.0,30.10,ESE,115,0.0,-999.0,87,-99.99,,,0.00,weatherlink.com 1.10,2013-06-06 04:17:00,
2013-06-06 05:32:00,53.3,50.0,30.10,ESE,115,0.0,-999.0,87,-99.99,,,0.00,weatherlink.com 1.10,2013-06-06 04:32:00,
2013-06-06 05:47:00,53.6,50.0,30.10,ESE,115,0.0,-999.0,87,-99.99,,,0.00,weatherlink.com 1.10,2013-06-06 04:47:00,
2013-06-06 06:02:00,53.8,50.0,30.10,ESE,115,0.0,-999.0,87,-99.99,,,0.00,weatherlink.com 1.10,2013-06-06 05:02:00,
2013-06-06 06:17:00,54.2,51.0,30.10,ESE,115,0.0,-999.0,87,-99.99,,,0.00,weatherlink.com 1.10,2013-06-06 05:17:00,
2013-06-06 06:32:00,54.5,50.0,30.10,ESE,115,0.0,-999.0,86,-99.99,,,0.00,weatherlink.com 1.10,2013-06-06 05:32:00,
2013-06-06 06:47:00,55.0,51.0,30.10,ESE,115,0.0,-999.0,85,-99.99,,,0.00,weatherlink.com 1.10,2013-06-06 05:47:00,
2013-06-06 07:02:00,55.5,50.0,30.10,ESE,115,0.0,-999.0,83,-99.99,,,0.00,weatherlink.com 1.10,2013-06-06 06:02:00,
2013-06-06 07:17:00,56.1,51.0,30.11,ESE,115,0.0,-999.0,82,-99.99,,,0.00,weatherlink.com 1.10,2013-06-06 06:17:00,
2013-06-06 07:32:00,57.3,51.0,30.11,ESE,115,0.0,-999.0,79,-99.99,,,0.00,weatherlink.com 1.10,2013-06-06 06:32:00,
2013-06-06 07:47:00,59.0,52.0,30.11,ENE,71,0.0,-999.0,77,-99.99,,,0.00,weatherlink.com 1.10,2013-06-06 06:47:00,
2013-06-06 08:02:00,58.6,51.0,30.12,NE,52,0.0,-999.0,77,-99.99,,,0.00,weatherlink.com 1.10,2013-06-06 07:02:00,
2013-06-06 08:17:00,58.9,52.0,30.13,East,100,0.0,-999.0,78,-99.99,,,0.00,weatherlink.com 1.10,2013-06-06 07:17:00,
2013-06-06 08:32:00,59.1,52.0,30.13,ENE,61,0.0,-999.0,78,-99.99,,,0.00,weatherlink.com 1.10,2013-06-06 07:32:00,
2013-06-06 08:47:00,59.9,52.0,30.13,SE,130,0.0,-999.0,76,-99.99,,,0.00,weatherlink.com 1.10,2013-06-06 07:47:00,
2013-06-06 09:02:00,60.4,52.0,30.12,ESE,109,0.0,-999.0,73,-99.99,,,0.00,weatherlink.com 1.10,2013-06-06 08:02:00,
2013-06-06 09:17:00,60.9,51.0,30.13,ESE,115,0.0,-999.0,70,-99.99,,,0.00,weatherlink.com 1.10,2013-06-06 08:17:00,
2013-06-06 09:32:00,61.1,50.0,30.13,SE,132,0.0,-999.0,68,-99.99,,,0.00,weatherlink.com 1.10,2013-06-06 08:32:00,
2013-06-06 09:47:00,61.5,50.0,30.13,SE,128,0.0,-999.0,67,-99.99,,,0.00,weatherlink.com 1.10,2013-06-06 08:47:00,
2013-06-06 10:02:00,61.2,50.0,30.13,ESE,115,0.0,-999.0,68,-99.99,,,0.00,weatherlink.com 1.10,2013-06-06 09:02:00,
2013-06-06 10:17:00,61.3,51.0,30.13,East,91,0.0,-999.0,68,-99.99,,,0.00,weatherlink.com 1.10,2013-06-06 09:17:00,
2013-06-06 10:32:00,61.3,51.0,30.14,East,86,0.0,-999.0,68,-99.99,,,0.00,weatherlink.com 1.10,2013-06-06 09:32:00,
2013-06-06 10:47:00,61.7,51.0,30.14,ESE,105,0.0,-999.0,67,-99.99,,,0.00,weatherlink.com 1.10,2013-06-06 09:47:00,
2013-06-06 11:02:00,61.7,51.0,30.14,East,88,0.0,-999.0,68,-99.99,,,0.00,weatherlink.com 1.10,2013-06-06 10:02:00,
2013-06-06 11:17:00,61.4,51.0,30.14,East,88,0.0,-999.0,68,-99.99,,,0.00,weatherlink.com 1.10,2013-06-06 10:17:00,
2013-06-06 11:32:00,61.7,51.0,30.14,East,94,0.0,-999.0,67,-99.99,,,0.00,weatherlink.com 1.10,2013-06-06 10:32:00,
2013-06-06 11:47:00,62.2,51.0,30.14,ESE,118,0.0,-999.0,66,-99.99,,,0.00,weatherlink.com 1.10,2013-06-06 10:47:00,
2013-06-06 12:02:00,62.5,51.0,30.14,ESE,117,0.0,-999.0,66,-99.99,,,0.00,weatherlink.com 1.10,2013-06-06 11:02:00,
2013-06-06 12:17:00,62.9,50.0,30.14,East,90,0.0,-999.0,64,-99.99,,,0.00,weatherlink.com 1.10,2013-06-06 11:17:00,
2013-06-06 12:32:00,62.5,50.0,30.14,ESE,111,0.0,-999.0,64,-99.99,,,0.00,weatherlink.com 1.10,2013-06-06 11:32:00,
2013-06-06 12:47:00,63.5,51.0,30.14,East,101,0.0,-999.0,63,-99.99,,,0.00,weatherlink.com 1.10,2013-06-06 11:47:00,
2013-06-06 13:02:00,63.1,50.0,30.14,ESE,116,0.0,-999.0,63,-99.99,,,0.00,weatherlink.com 1.10,2013-06-06 12:02:00,
2013-06-06 13:17:00,62.9,52.0,30.15,East,83,0.0,-999.0,67,-99.99,,,0.00,weatherlink.com 1.10,2013-06-06 12:17:00,
2013-06-06 13:32:00,62.8,52.0,30.15,ENE,73,0.0,-999.0,67,-99.99,,,0.00,weatherlink.com 1.10,2013-06-06 12:32:00,
2013-06-06 13:47:00,63.3,52.0,30.15,ENE,58,0.0,-999.0,66,-99.99,,,0.00,weatherlink.com 1.10,2013-06-06 12:47:00,
2013-06-06 14:02:00,63.7,52.0,30.15,ENE,78,0.0,-999.0,65,-99.99,,,0.00,weatherlink.com 1.10,2013-06-06 13:02:00,
2013-06-06 14:18:00,64.8,52.0,30.15,East,92,0.0,-999.0,64,-99.99,,,0.00,weatherlink.com 1.10,2013-06-06 13:18:00,
2013-06-06 14:33:00,64.3,52.0,30.15,ENE,70,0.0,-999.0,64,-99.99,,,0.00,weatherlink.com 1.10,2013-06-06 13:33:00,
2013-06-06 14:48:00,64.1,52.0,30.16,ESE,111,0.0,-999.0,64,-99.99,,,0.00,weatherlink.com 1.10,2013-06-06 13:48:00,
2013-06-06 15:03:00,64.7,51.0,30.15,NE,55,0.0,-999.0,62,-99.99,,,0.00,weatherlink.com 1.10,2013-06-06 14:03:00,
2013-06-06 15:18:00,64.5,52.0,30.16,SE,128,0.0,-999.0,64,-99.99,,,0.00,weatherlink.com 1.10,2013-06-06 14:18:00,
2013-06-06 15:33:00,64.8,52.0,30.16,East,86,0.0,-999.0,63,-99.99,,,0.00,weatherlink.com 1.10,2013-06-06 14:33:00,
2013-06-06 15:48:00,64.9,52.0,30.16,East,86,0.0,-999.0,63,-99.99,,,0.00,weatherlink.com 1.10,2013-06-06 14:48:00,
2013-06-06 16:03:00,64.6,51.0,30.15,East,92,0.0,-999.0,62,-99.99,,,0.00,weatherlink.com 1.10,2013-06-06 15:03:00,
2013-06-06 16:18:00,63.9,51.0,30.15,East,101,0.0,-999.0,64,-99.99,,,0.00,weatherlink.com 1.10,2013-06-06 15:18:00,
2013-06-06 16:33:00,64.2,51.0,30.15,ESE,116,0.0,-999.0,62,-99.99,,,0.00,weatherlink.com 1.10,2013-06-06 15:33:00,
2013-06-06 16:48:00,63.8,51.0,30.15,East,79,0.0,-999.0,63,-99.99,,,0.00,weatherlink.com 1.10,2013-06-06 15:48:00,
2013-06-06 17:03:00,65.0,51.0,30.15,SE,129,0.0,-999.0,61,-99.99,,,0.00,weatherlink.com 1.10,2013-06-06 16:03:00,
2013-06-06 17:18:00,64.7,52.0,30.15,ESE,103,0.0,-999.0,63,-99.99,,,0.00,weatherlink.com 1.10,2013-06-06 16:18:00,
2013-06-06 17:33:00,64.7,52.0,30.15,ESE,117,0.0,-999.0,63,-99.99,,,0.00,weatherlink.com 1.10,2013-06-06 16:33:00,
2013-06-06 17:48:00,64.7,52.0,30.15,ENE,64,0.0,-999.0,63,-99.99,,,0.00,weatherlink.com 1.10,2013-06-06 16:48:00,
2013-06-06 18:03:00,65.2,52.0,30.15,East,98,0.0,-999.0,63,-99.99,,,0.00,weatherlink.com 1.10,2013-06-06 17:03:00,
2013-06-06 18:18:00,65.7,51.0,30.15,South,175,0.0,-999.0,60,-99.99,,,0.00,weatherlink.com 1.10,2013-06-06 17:18:00,
2013-06-06 18:33:00,65.4,51.0,30.14,ENE,77,0.0,-999.0,61,-99.99,,,0.00,weatherlink.com 1.10,2013-06-06 17:33:00,
2013-06-06 18:48:00,65.6,51.0,30.15,ESE,115,0.0,-999.0,60,-99.99,,,0.00,weatherlink.com 1.10,2013-06-06 17:48:00,
2013-06-06 19:03:00,65.5,51.0,30.14,East,94,0.0,-999.0,60,-99.99,,,0.00,weatherlink.com 1.10,2013-06-06 18:03:00,
2013-06-06 19:18:00,64.4,51.0,30.15,ESE,102,0.0,-999.0,63,-99.99,,,0.00,weatherlink.com 1.10,2013-06-06 18:18:00,
2013-06-06 19:33:00,64.3,51.0,30.15,East,96,0.0,-999.0,63,-99.99,,,0.00,weatherlink.com 1.10,2013-06-06 18:33:00,
2013-06-06 19:48:00,63.7,51.0,30.15,East,94,0.0,-999.0,63,-99.99,,,0.00,weatherlink.com 1.10,2013-06-06 18:48:00,
2013-06-06 20:03:00,64.2,52.0,30.15,East,92,0.0,-999.0,64,-99.99,,,0.00,weatherlink.com 1.10,2013-06-06 19:03:00,
2013-06-06 20:18:00,63.7,51.0,30.16,East,82,0.0,-999.0,63,-99.99,,,0.00,weatherlink.com 1.10,2013-06-06 19:18:00,
2013-06-06 20:33:00,63.1,51.0,30.16,ENE,59,0.0,-999.0,64,-99.99,,,0.00,weatherlink.com 1.10,2013-06-06 19:33:00,
2013-06-06 20:48:00,62.4,51.0,30.16,ENE,60,0.0,-999.0,67,-99.99,,,0.00,weatherlink.com 1.10,2013-06-06 19:48:00,
2013-06-06 21:03:00,61.8,51.0,30.17,East,92,0.0,-999.0,68,-99.99,,,0.00,weatherlink.com 1.10,2013-06-06 20:03:00,
2013-06-06 21:18:00,61.4,51.0,30.17,East,92,0.0,-999.0,68,-99.99,,,0.00,weatherlink.com 1.10,2013-06-06 20:18:00,
2013-06-06 21:33:00,60.7,50.0,30.17,East,80,0.0,-999.0,68,-99.99,,,0.00,weatherlink.com 1.10,2013-06-06 20:33:00,
2013-06-06 21:48:00,60.3,50.0,30.18,ENE,77,0.0,-999.0,70,-99.99,,,0.00,weatherlink.com 1.10,2013-06-06 20:48:00,
2013-06-06 22:03:00,59.9,50.0,30.18,East,81,0.0,-999.0,71,-99.99,,,0.00,weatherlink.com 1.10,2013-06-06 21:03:00,
2013-06-06 22:18:00,59.6,51.0,30.18,East,84,0.0,-999.0,72,-99.99,,,0.00,weatherlink.com 1.10,2013-06-06 21:18:00,
2013-06-06 22:33:00,59.5,51.0,30.18,East,86,0.0,-999.0,73,-99.99,,,0.00,weatherlink.com 1.10,2013-06-06 21:33:00,
2013-06-06 22:48:00,59.2,51.0,30.19,East,87,0.0,-999.0,74,-99.99,,,0.00,weatherlink.com 1.10,2013-06-06 21:48:00,
2013-06-06 23:03:00,58.7,51.0,30.20,East,87,0.0,-999.0,75,-99.99,,,0.00,weatherlink.com 1.10,2013-06-06 22:03:00,
2013-06-06 23:18:00,58.4,51.0,30.19,East,87,0.0,-999.0,76,-99.99,,,0.00,weatherlink.com 1.10,2013-06-06 22:18:00,
2013-06-06 23:33:00,58.3,51.0,30.19,East,88,0.0,-999.0,76,-99.99,,,0.00,weatherlink.com 1.10,2013-06-06 22:33:00,
2013-06-06 23:48:00,58.1,51.0,30.20,East,90,0.0,-999.0,77,-99.99,,,0.00,weatherlink.com 1.10,2013-06-06 22:48:00,